Regional Weather Roundup
Issued by NWS Cleveland, OH

Home | Current Version | Previous Version | Graphics & Text | Print | Product List | Glossary On
Versions: 1 2 3 4 5 6 7 8 9 10 11 12 13 14 15 16 17 18 19 20 21 22 23 24 25 26 27 28 29 30 31 32 33 34 35 36 37 38 39 40 41 42 43 44 45 46 47 48 49 50
000
ASUS41 KCLE 051910
RWRCLE
OHIO REGIONAL WEATHER ROUNDUP
NATIONAL WEATHER SERVICE CLEVELAND, OH
200 PM EST FRI FEB 05 2016

NOTE: "FAIR" INDICATES FEW OR NO CLOUDS BELOW 12,000 FEET WITH NO
SIGNIFICANT WEATHER AND/OR OBSTRUCTIONS TO VISIBILITY.

OHZ001>008-015>018-024>027-034-035-043-044-052000-
   NORTHWEST OHIO

CITY           SKY/WX    TMP DP  RH WIND       PRES   REMARKS
DEFIANCE       PTSUNNY   39  22  50 SW14      30.31F
FINDLAY        SUNNY     40  20  44 SW12      30.31F
TOLEDO EXPRESS SUNNY     39  19  44 S13       30.31F
TOLEDO EXEC    SUNNY     39  18  42 SW12      30.32F
LIMA           SUNNY     37  21  52 SW12      30.31F
$$

OHZ009>014-019>023-028>033-038-089-052000-
   NORTHEAST OHIO

CITY           SKY/WX    TMP DP  RH WIND       PRES   REMARKS
CLE-HOPKINS    MOSUNNY   36  20  52 CALM      30.37F
CLE-LAKEFRONT  MOSUNNY   34  23  64 NW5       30.35F WCI  30
CUY CO. ARPT   NOT AVBL
LORAIN-ELYRIA  MOSUNNY   35  20  54 W7        30.34F WCI  29
ASHTABULA      CLOUDY    31  16  54 W6        30.34S WCI  25
AKRON-CANTON   MOSUNNY   34  17  50 W8        30.33F WCI  27
WOOSTER        SUNNY     35  20  54 W9        30.33F WCI  28
MANSFIELD      SUNNY     36  20  52 W9        30.32F
YOUNGSTOWN     PTSUNNY   33  18  53 W12       30.32F WCI  24
$$

OHZ042-051>053-060>062-070>072-077>081-052000-
  SOUTHWEST OHIO

CITY           SKY/WX    TMP DP  RH WIND       PRES   REMARKS
CINC-COVINGTON NOT AVBL
CINC-LUNKEN    SUNNY     42  21  43 S10       30.38F
HAMILTON       SUNNY     42  17  36 SW6G18    30.37F
DAYTON         MOSUNNY   39  19  44 SW12      30.34F
WRIGHT-PAT AFB SUNNY     41  16  36 S7        30.34F
DAYTON GENERAL SUNNY     40  18  41 SW8       30.34F
WILMINGTON     SUNNY     37  19  48 S8        30.35F
$$

OHZ036-037-039>041-045>050-054>059-063>069-073>076-082>088-052000-
  CENTRAL AND SOUTHEAST OHIO

CITY           SKY/WX    TMP DP  RH WIND       PRES   REMARKS
COLUMBUS       MOSUNNY   37  17  44 SW8       30.36F
OSU AIRPORT    MOSUNNY   38  18  44 VRB5G17   30.35F
BOLTON FIELD   SUNNY     37  19  48 SW12      30.36F
RICKENBACK AFB SUNNY     37  19  49 SW8       30.37F
NEWARK         SUNNY     37  18  46 W5        30.35F
MARION         SUNNY     37  19  48 SW10      30.34F
LANCASTER      SUNNY     37  19  48 SW7       30.37F
ZANESVILLE     SUNNY     39  19  44 NW6       30.36F
NEW PHILLY     SUNNY     36  18  48 VRB6      30.36F
$$



USA.gov is the U.S. government's official web portal to all federal, state and local government web resources and services.